TEVEL2-3

Last updated on Sun Aug 09 2026 00:03:16 GMT+0000 (Coordinated Universal Time)

1 63218U 25052J 26220.46249610 .00008910 00000+0 25974-3 0 9995 2 63218 97.3809 116.4930 0001161 19.6156 340.5132 15.35603485 78114
UTC large
Height (km)
Speed (km/s)
/
Latitude / Longitude
Inclination (degrees)
Orbital Period (minutes)
Azimuth
Elevation
Range (km)
Doppler Factor

Next 0 passes for location: London (51.5072 / 0.1276)

No passes found over London.
TEVEL2-3